Retour au catalogue

FENGYUN 1C DEB

ActifSSO
NORAD 31837·DEBRIS·🇨🇳 China

Lancé May 10, 1999 depuis Taiyuan Satellite Launch Center

Loading…

Prochains Passages (prochaines 24 heures)

TLE

VieillissantSource: Space-Track

Époque: Sep 6, 2026, 12:05 UTC

1 31837U 99025CJB 26249.50388274  .00004953  00000-0  52255-3 0  9990
2 31837  98.0815 334.1238 0084932 224.8248 134.6086 14.87132345 23264

Suivez FENGYUN 1C DEB en temps réel avec AllMySat

Download on the App Store